Location: Arbon
(43.0005°N, 0.7472°E)
Time: 07:39:42
(UTC+00:00)

Vanguard 1 - Pass Details

Date: 28 November 2020
Orbit: 648 x 3834 km, 34.3° (Epoch: 21 January)

Event Time Altitude Azimuth Distance (km) Brightness Sun altitude
Rises 12:56:19 0° 269° (W) 6,244 14.4 23.5°
Reaches altitude 10° 13:03:04 10° 249° (WSW) 5,844 14.7 23.1°
Maximum altitude 13:11:38 15° 221° (SW) 5,999 15.7 22.6°
Drops below altitude 10° 13:21:37 10° 194° (SSW) 6,836 16.3 21.8°
Sets 13:31:21 0° 175° (S) 7,956 15.7 21.1°
